Location: Monroe
(41.9160°N, 83.3980°W)
Time: 20:09:31
(UTC-05:00)

ISS - Visible Passes

Search period start: 23 November 2014 00:00
Search period end: 03 December 2014 00:00
Orbit: 408 x 417 km, 51.6° (Epoch: 23 November)

Date Brightness Start Highest point End Pass type
(mag) Time Alt. Az. Time Alt. Az. Time Alt. Az.
23 Nov -0.7 05:19:38 16° NNE 05:19:38 16° NNE 05:21:00 10° NE visible
23 Nov -2.7 06:52:40 10° NW 06:55:54 52° NNE 06:59:08 10° ESE visible
24 Nov -2.1 06:04:49 24° NNW 06:06:05 34° NNE 06:09:08 10° E visible
25 Nov -1.0 05:17:10 21° NE 05:17:10 21° NE 05:18:57 10° ENE visible
25 Nov -3.1 06:49:59 12° WNW 06:53:02 62° SW 06:56:17 10° SE visible
26 Nov -3.3 06:02:20 45° NW 06:03:13 74° NE 06:06:31 10° ESE visible
27 Nov -1.1 05:14:42 27° E 05:14:42 27° E 05:16:28 10° ESE visible
27 Nov -1.8 06:47:32 13° W 06:49:46 23° SW 06:52:26 10° S visible
28 Nov -2.7 05:59:54 41° SW 05:59:58 41° SW 06:03:05 10° SSE visible
29 Nov -0.7 05:12:19 18° SE 05:12:19 18° SE 05:13:19 10° SE visible
30 Nov -0.9 05:57:34 13° SSW 05:57:34 13° SSW 05:58:25 10° S visible
